x

St. Joseph, Mi (sjom4) Weather Station

12:50pm - Mon 28th Jul 2014 All times are CDT. -5 hours from GMT.

  • Wind
    18mph, 22mph gusts
  • Air Temp 57°f
  • Sea Pressure 1018.3mb
  • St. Joseph, Mi
  • St. Joseph, Mi

More Historic Weather Station data

Upgrade to MSW Pro to gain access to the past 30 days of data for over 8000 Wavebouys and Weather Stations around the globe.

Join Pro

Comparision Forecast

View Surf forecast
   
Mon 07/28 12:50pm 18 22 mph 1018.3mb 57f
12:40pm 15 20 mph 1017.9mb 57f
12:30pm 16 20 mph 1017.9mb 57f
12:20pm 16 23 mph 1018.6mb 57f
12:10pm 17 23 mph 1017.9mb 57f
12:00pm 18 23 mph 1018.3mb 57f
11:54am 17 25 mph 1017.9mb 57f
11:50am 20 25 mph 1018.6mb 57f
11:40am 18 25 mph 1017.9mb 57f
11:30am 15 24 mph 1017.9mb 57f
11:20am 17 22 mph 1018.3mb 57f
11:10am 16 22 mph 1017.6mb 57f
11:00am 17 22 mph 1017.3mb 57f
10:53am 16 24 mph 1017.9mb 57f
10:50am 15 24 mph 1017.9mb 57f
10:40am 16 22 mph 1018.3mb 57f
10:30am 14 23 mph 1017.9mb 57f
10:20am 16 22 mph 1017.3mb 58f
10:10am 16 23 mph 1017.3mb 58f
10:00am 17 23 mph 1017.6mb 58f
9:53am 16 25 mph 1016.9mb 58f
9:50am 17 24 mph 1017.6mb 58f
9:40am 17 25 mph 1016.9mb 58f
9:30am 16 24 mph 1016.9mb 58f
9:20am 18 23 mph 1017.3mb 58f
9:10am 16 21 mph 1017.3mb 59f
9:00am 15 25 mph 1016.3mb 59f
8:52am 17 25 mph 1016.6mb 59f
8:50am 16 24 mph 1016.6mb 59f
8:40am 16 24 mph 1016.9mb 59f
8:30am 20 23 mph 1016.6mb 59f
8:20am 16 24 mph 1015.9mb 59f
8:10am 17 23 mph 1016.3mb 59f
8:00am 17 23 mph 1016.6mb 60f
7:52am 18 24 mph 1016.3mb 60f
7:50am 17 24 mph 1016.3mb 60f
7:40am 18 24 mph 1015.2mb 60f
7:30am 20 23 mph 1015.9mb 60f
7:20am 16 24 mph 1015.9mb 60f
7:10am 18 24 mph 1015.6mb 60f
7:00am 18 24 mph 1014.9mb 60f
6:52am 17 24 mph 1015.2mb 60f
6:50am 16 23 mph 1015.2mb 60f
6:40am 16 24 mph 1015.2mb 60f
6:30am 20 23 mph 1014.6mb 60f
6:20am 17 23 mph 1014.6mb 60f
6:10am 17 22 mph 1014.9mb 61f
6:00am 16 22 mph 1014.6mb 61f
5:51am 18 25 mph 1013.9mb 61f
5:50am 18 24 mph 1013.9mb 61f
5:40am 20 25 mph 1014.2mb 61f
5:30am 20 24 mph 1014.2mb 61f
5:20am 17 24 mph 1013.5mb 61f
5:10am 17 23 mph 1013.9mb 61f
5:00am 16 22 mph 1013.9mb 61f
4:51am 17 24 mph 1013.9mb 62f
4:50am 17 23 mph 1012.9mb 62f
4:40am 18 21 mph 1013.2mb 62f
4:30am 18 23 mph 1013.2mb 62f
4:20am 20 24 mph 1012.2mb 62f
4:10am 14 23 mph 1012.9mb 62f
4:00am 18 24 mph 1012.5mb 62f
3:50am 18 25 mph 1012.2mb 62f
3:40am 18 23 mph 1012.9mb 62f
3:30am 18 25 mph 1011.9mb 62f
3:20am 18 24 mph 1012.2mb 62f
3:10am 17 23 mph 1012.5mb 62f
3:00am 18 24 mph 1011.9mb 62f
2:50am 18 28 mph 1011.9mb 63f
2:40am 18 26 mph 1012.2mb 63f
2:30am 18 26 mph 1011.5mb 63f
2:20am 20 26 mph 1011.9mb 63f
2:10am 20 28 mph 1012.2mb 63f
2:00am 18 26 mph 1011.2mb 63f
1:50am 20 29 mph 1011.5mb 63f
1:40am 20 29 mph 1011.9mb 64f
1:30am 20 29 mph 1011.2mb 64f
1:20am 20 28 mph 1011.5mb 64f
1:10am 21 30 mph 1011.9mb 64f
1:00am 23 31 mph 1010.8mb 64f
12:50am 22 30 mph 1011.5mb 64f
12:49am 21
mph
1011.5mb 64f
12:40am 22 31 mph 1011.5mb 64f
12:30am 25 32 mph 1010.8mb 64f
12:22am 21 30 mph 1010.8mb 64f
12:20am 21 28 mph 1011.5mb 64f
12:10am 22 26 mph 1011.2mb 64f
12:00am 17 29 mph 1010.5mb 64f
Sun 07/27 11:50pm 18 28 mph 1011.5mb 64f
11:49pm 21
mph
1011.2mb 64f
11:40pm 20 29 mph 1010.8mb 64f
11:30pm 24 30 mph 1010.8mb 64f
11:20pm 22 32 mph 1011.2mb 64f
11:10pm 22 31 mph 1010.5mb 64f
11:00pm 26 31 mph 1011.5mb 64f
10:50pm 23 30 mph 1010.8mb 64f
10:48pm 21 28 mph 1010.8mb 64f
10:40pm 21 28 mph 1011.2mb 64f
10:30pm 24 28 mph 1011.2mb 64f
10:20pm 23 28 mph 1010.8mb 65f
10:10pm 21 26 mph 1010.8mb 65f
10:00pm 21 26 mph 1010.8mb 65f
9:50pm 21 25 mph 1010.8mb 65f
9:48pm 21 28 mph 1010.5mb 65f
9:40pm 18 26 mph 1010.8mb 65f
9:30pm 20 28 mph 1010.8mb 65f
9:20pm 22 28 mph 1010.5mb 65f
9:10pm 21 25 mph 1010.2mb 65f
9:00pm 21 24 mph 1010.5mb 66f
8:50pm 16 22 mph 1009.8mb 66f
8:47pm 17 24 mph 1009.5mb 66f
8:40pm 17 22 mph 1010.2mb 66f
8:30pm 18 22 mph 1009.5mb 67f
8:20pm 17 22 mph 1010.2mb 67f
8:10pm 17 24 mph 1009.5mb 67f
8:00pm 17 22 mph 1009.8mb 67f
7:50pm 14 18 mph 1008.8mb 67f
7:47pm 15 24 mph 1009.1mb 67f
7:40pm 16 21 mph 1009.1mb 67f
7:30pm 17 23 mph 1009.5mb 68f
7:20pm 20 23 mph 1008.5mb 68f
7:10pm 17 24 mph 1008.8mb 68f
7:00pm 17 21 mph 1009.1mb 68f
6:50pm 17 20 mph 1008.1mb 69f
6:47pm 14 23 mph 1008.5mb 69f
6:40pm 17 23 mph 1008.5mb 70f
6:30pm 14 18 mph 1008.8mb 70f
6:20pm 13 21 mph 1008.1mb 70f
6:10pm 15 21 mph 1007.5mb 70f
6:00pm 15 18 mph 1008.1mb 70f
5:50pm 14 17 mph 1008.1mb 69f
5:46pm 13 20 mph 1007.1mb 69f
5:40pm 14 18 mph 1007.8mb 69f
5:30pm 14 20 mph 1007.1mb 70f
5:20pm 14 20 mph 1007.5mb 69f
5:10pm 14 17 mph 1007.8mb 70f
5:00pm 14 17 mph 1007.8mb 69f
4:50pm 14 22 mph 1006.8mb 69f
4:46pm 16
mph
1007.1mb 69f
4:40pm 18 28 mph 1006.4mb 69f
4:30pm 23 32 mph 1006.4mb 69f
4:20pm 24 32 mph 1007.1mb 69f
4:10pm 23 32 mph 1007.1mb 70f
4:03pm 11 30 mph 1006.8mb 74f
4:00pm 9 14 mph 1006.4mb 74f
3:50pm 9 11 mph 1006.4mb 76f
3:45pm 9 11 mph 1006.1mb 76f
3:40pm 9 11 mph 1006.1mb 76f
3:30pm 7 10 mph 1006.1mb 75f
3:20pm 7 10 mph 1005.8mb 74f
3:10pm 9 10 mph 1005.4mb 75f
3:00pm 6 7 mph 1005.4mb 76f
2:50pm 7 10 mph 1005.8mb 74f
2:45pm 8
mph
1006.1mb 74f
2:40pm 9 13 mph 1006.1mb 74f
2:30pm 7 9 mph 1005.8mb 71f
2:20pm 3 11 mph 1005.4mb 68f
2:10pm 11 38 mph 1006.4mb 69f
2:04pm 20 29 mph 1005.8mb 72f
2:00pm 20 26 mph 1006.4mb 72f
1:00pm 8 10 mph 1006.1mb 74f
12:50pm 9 10 mph 1006.4mb 73f
12:44pm 9 13 mph 1007.1mb 72f
12:40pm 9 10 mph 1007.1mb 72f
12:30pm 9 11 mph 1007.5mb 72f
12:20pm 10 13 mph 1007.5mb 72f
12:10pm 11 13 mph 1007.5mb 72f
12:00pm 9 11 mph 1007.1mb 71f
11:50am 9 10 mph 1007.5mb 71f
11:44am 9 14 mph 1007.8mb 71f
11:40am 10 11 mph 1007.8mb 71f
11:30am 10 11 mph 1008.1mb 71f
11:20am 9 11 mph 1008.1mb 71f
11:10am 10 14 mph 1007.5mb 71f
11:00am 10 13 mph 1007.1mb 71f
10:50am 10 11 mph 1007.8mb 71f
10:43am 10 13 mph 1007.1mb 71f
10:40am 10 13 mph 1008.1mb 71f
10:30am 10 11 mph 1007.8mb 71f
10:20am 9 10 mph 1007.1mb 71f
10:10am 7 10 mph 1008.1mb 71f
10:00am 7 9 mph 1008.1mb 70f
9:50am 8 10 mph 1007.5mb 70f
9:43am 8 10 mph 1007.8mb 71f
9:40am 8 10 mph 1008.1mb 71f
9:30am 8 10 mph 1008.5mb 70f
9:20am 8 10 mph 1007.5mb 70f
9:10am 9 10 mph 1008.5mb 70f
9:00am 8 9 mph 1007.8mb 70f
8:50am 7 9 mph 1008.5mb 70f
8:42am 8 11 mph 1008.5mb 70f
8:40am 8 10 mph 1008.1mb 70f
8:30am 8 9 mph 1008.5mb 69f
8:20am 8 11 mph 1008.5mb 70f
8:10am 8 10 mph 1008.5mb 70f
8:00am 8 10 mph 1008.5mb 69f
7:50am 9 13 mph 1008.5mb 70f
7:42am 9 13 mph 1008.8mb 70f
7:40am 10 13 mph 1008.5mb 70f
7:30am 8 13 mph 1008.5mb 69f
7:20am 10 11 mph 1008.5mb 70f
7:10am 8 13 mph 1008.5mb 69f
7:00am 8 13 mph 1008.5mb 69f
6:50am 11 13 mph 1008.5mb 70f
6:42am 9 14 mph 1008.8mb 70f
6:40am 7 13 mph 1008.5mb 70f
6:30am 8 14 mph 1008.8mb 70f
6:20am 9 13 mph 1008.8mb 70f
6:10am 9 13 mph 1008.8mb 69f
6:00am 10 14 mph 1008.8mb 70f
5:50am 10 15 mph 1009.1mb 69f
5:41am 11 15 mph 1009.1mb 70f
5:40am 11 14 mph 1009.1mb 70f
5:30am 11 14 mph 1009.1mb 70f
5:20am 11 15 mph 1008.8mb 70f
5:10am 11 14 mph 1009.1mb 70f
5:00am 9 11 mph 1008.8mb 70f
4:50am 8 13 mph 1008.8mb 70f
4:41am 9 14 mph 1008.8mb 70f
4:40am 9 14 mph 1009.1mb 70f
4:30am 10 13 mph 1008.8mb 70f
4:20am 7 9 mph 1009.1mb 70f
4:10am 8 10 mph 1008.8mb 70f
4:00am 9 11 mph 1009.1mb 71f
3:50am 10 14 mph 1008.5mb 71f
3:40am 9 14 mph 1009.1mb 71f
3:30am 9 11 mph 1008.5mb 71f
3:20am 8 11 mph 1009.8mb 71f
3:10am 7 11 mph 1009.1mb 70f
3:00am 8 10 mph 1009.5mb 71f
2:50am 8 11 mph 1009.5mb 71f
2:40am 8 14 mph 1009.8mb 71f
2:30am 7 11 mph 1009.8mb 71f
2:20am 8 13 mph 1009.5mb 71f
2:10am 7 13 mph 1010.2mb 71f
2:00am 9 14 mph 1009.5mb 71f
1:50am 9 13 mph 1010.2mb 71f
1:40am 7 14 mph 1009.8mb 72f
1:30am 7 10 mph 1009.8mb 71f
1:20am 8 14 mph 1010.8mb 72f
1:10am 8 14 mph 1009.8mb 73f
1:00am 8 11 mph 1010.8mb 72f
12:50am 8 10 mph 1010.5mb 73f
12:40am 7 13 mph 1010.2mb 73f
12:39am 8 13 mph 1010.2mb 73f
12:30am 8 11 mph 1011.2mb 73f
12:20am 6 8 mph 1010.2mb 72f
12:10am 6 10 mph 1010.5mb 74f
12:00am 7 10 mph 1010.8mb 74f
Sat 07/26 11:50pm 6 9 mph 1010.2mb 73f
11:40pm 5 8 mph 1010.8mb 74f
11:39pm 5 9 mph 1010.8mb 74f
11:30pm 5 9 mph 1010.5mb 74f
11:20pm 3 6 mph 1010.5mb 74f
11:10pm 5 7 mph 1010.8mb 74f
11:00pm 5 8 mph 1009.8mb 74f
10:50pm 5 8 mph 1010.8mb 73f
10:40pm 5 8 mph 1010.5mb 73f
10:38pm 5 8 mph 1010.2mb 73f
10:30pm 3 8 mph 1010.5mb 73f
10:20pm 5 8 mph 1010.8mb 72f
10:10pm 2 5 mph 1010.2mb 71f
10:00pm 2 5 mph 1011.2mb 72f
9:50pm 2 5 mph 1010.5mb 71f
9:40pm 2 3 mph 1010.2mb 71f
9:38pm 2 5 mph 1010.5mb 71f
9:30pm 1 3 mph 1010.8mb 72f
9:20pm 2 3 mph 1010.2mb 72f
9:10pm 1 3 mph 1009.8mb 72f
9:00pm 1 2 mph 1010.5mb 73f
8:50pm 1 5 mph 1010.2mb 73f
8:40pm 2 5 mph 1009.8mb 73f
8:38pm 2 9 mph 1010.5mb 73f
8:30pm 2 7 mph 1010.5mb 73f
8:20pm 2 6 mph 1010.5mb 73f
8:10pm 2 7 mph 1009.8mb 74f
8:00pm 2 9 mph 1010.2mb 74f
7:50pm 5 7 mph 1010.8mb 74f
7:40pm 3 7 mph 1010.5mb 74f
7:37pm 5 13 mph 1009.8mb 74f
7:30pm 6 8 mph 1010.2mb 74f
7:20pm 3 9 mph 1010.5mb 74f
7:10pm 5 8 mph 1011.2mb 73f
7:00pm 6 10 mph 1011.2mb 73f
6:50pm 8 13 mph 1010.8mb 73f
6:40pm 8 13 mph 1010.8mb 73f
6:37pm 7 11 mph 1011.2mb 73f
6:30pm 8 10 mph 1011.5mb 73f
6:20pm 7 10 mph 1011.5mb 73f
6:10pm 8 10 mph 1011.5mb 72f
6:00pm 8 9 mph 1010.8mb 73f
5:50pm 7 8 mph 1010.5mb 73f
5:40pm 5 7 mph 1010.2mb 73f
5:36pm 2 3 mph 1010.5mb 74f
5:30pm 2
mph
1010.5mb 74f
5:20pm 2
mph
1010.5mb 75f
5:10pm 1 2 mph 1010.5mb 74f
5:00pm 1 3 mph 1010.8mb 72f
4:50pm 1 2 mph 1010.8mb 73f
4:40pm  -  3 mph 1010.5mb 72f
4:36pm 1 6 mph 1011.2mb 71f
4:30pm 2 5 mph 1010.5mb 71f
4:20pm 3 6 mph 1010.8mb 70f
4:10pm 3 5 mph 1011.2mb 70f
4:00pm 2
mph
1011.5mb 69f
3:50pm 3 6 mph 1011.2mb 70f
3:40pm 3 7 mph 1010.5mb 69f
3:36pm 5 8 mph 1010.8mb 69f
3:30pm 5 6 mph 1010.5mb 69f
3:20pm 2 5 mph 1010.2mb 69f
3:10pm 5
mph
1010.5mb 70f
3:00pm 3 8 mph 1010.8mb 70f
2:50pm 7
mph
1011.2mb 71f
2:40pm 5 6 mph 1010.5mb 76f
2:35pm 5 8 mph 1009.5mb 76f
2:30pm 5 7 mph 1010.2mb 75f
2:20pm 6 8 mph 1010.2mb 72f
2:10pm 3 5 mph 1010.8mb 71f
2:00pm 1 6 mph 1010.8mb 71f
1:50pm 3 5 mph 1010.8mb 73f
1:40pm 2 5 mph 1011.2mb 73f
1:35pm 3 6 mph 1011.2mb 72f
1:30pm 5 6 mph 1011.5mb 72f
1:20pm 5 6 mph 1011.5mb 74f
1:10pm  -  2 mph 1011.5mb 70f
1:00pm 2 5 mph 1011.5mb 70f
12:50pm 5 6 mph 1011.5mb 71f
12:40pm 3 6 mph 1011.9mb 70f
12:34pm 3 8 mph 1012.2mb 70f
12:30pm 5 6 mph 1012.5mb 70f
12:20pm 2 3 mph 1012.2mb 72f
12:10pm 2 5 mph 1011.5mb 72f
12:00pm 2 6 mph 1011.5mb 71f
11:50am 6 7 mph 1012.2mb 70f
11:40am 6 8 mph 1012.2mb 70f
11:34am 6 13 mph 1012.2mb 71f
11:30am 7 10 mph 1011.5mb 71f
11:20am 10 13 mph 1010.8mb 71f
11:10am 8 10 mph 1011.5mb 71f
11:00am 7 10 mph 1011.9mb 70f
10:50am 7 8 mph 1011.9mb 71f
10:40am 6 8 mph 1011.5mb 71f
10:34am 6 9 mph 1011.5mb 71f
10:30am 7 8 mph 1011.9mb 71f
10:20am 7 9 mph 1012.2mb 71f
10:10am 6 7 mph 1011.9mb 71f
10:00am 3 6 mph 1011.9mb 71f
9:50am 2 6 mph 1012.5mb 71f
9:40am  -  5 mph 1012.5mb 73f
9:33am  -  6 mph 1012.2mb 73f
9:30am  -  5 mph 1011.9mb 73f
9:20am  -  6 mph 1012.2mb 72f
9:10am 1 6 mph 1011.9mb 71f
9:00am  -  6 mph 1012.2mb 71f
8:50am  -  5 mph 1012.2mb 70f
8:40am  -  2 mph 1012.2mb 69f
8:33am  -  5 mph 1012.9mb 69f
8:30am  -  3 mph 1012.5mb 69f
8:20am  -  5 mph 1012.2mb 68f
8:10am  -  3 mph 1012.5mb 68f
8:00am 1 5 mph 1012.5mb 67f
7:50am 1 5 mph 1012.2mb 67f
7:40am 2 5 mph 1013.2mb 66f
7:32am 2 5 mph 1012.5mb 66f
7:30am 2 5 mph 1012.5mb 66f
7:20am 2 5 mph 1012.5mb 65f
7:10am 2 5 mph 1012.9mb 64f
7:00am 2 5 mph 1011.9mb 64f
6:50am 2 5 mph 1012.9mb 64f
6:40am 2 3 mph 1012.5mb 64f
6:32am 1 6 mph 1011.9mb 64f
6:30am 2 5 mph 1011.9mb 64f
6:20am 2 5 mph 1012.5mb 63f
6:10am 2 6 mph 1011.9mb 63f
6:00am 2 5 mph 1012.2mb 63f
5:50am 1 5 mph 1012.9mb 63f
5:40am 2 6 mph 1011.9mb 63f
5:32am 1 6 mph 1012.5mb 63f
5:30am 2 5 mph 1012.5mb 63f
5:20am 1 3 mph 1012.5mb 63f
5:10am 2 5 mph 1012.2mb 63f
5:00am 2 5 mph 1012.9mb 63f
4:50am 2 6 mph 1012.2mb 63f
4:40am 2 5 mph 1012.5mb 63f
4:31am 2 7 mph 1012.9mb 63f
4:30am 2 7 mph 1012.9mb 63f
4:20am 2 7 mph 1012.2mb 63f
4:10am 2 5 mph 1012.9mb 64f
4:00am 2 5 mph 1012.9mb 63f
3:50am 2 6 mph 1012.5mb 63f
3:40am 2 6 mph 1013.2mb 63f
3:31am 2 6 mph 1013.2mb 63f
3:30am 2 5 mph 1012.5mb 63f
3:20am 2 5 mph 1012.9mb 63f
3:10am 1 5 mph 1013.2mb 63f
3:00am 1 5 mph 1012.5mb 63f
2:50am 2 6 mph 1013.2mb 63f
2:40am 2 5 mph 1012.9mb 63f
2:30am 2 5 mph 1012.9mb 63f
2:20am 2 5 mph 1013.5mb 63f
2:10am 2 5 mph 1013.5mb 63f
2:00am 2 6 mph 1013.2mb 64f
1:50am 2 6 mph 1013.9mb 64f
1:40am 2 6 mph 1013.9mb 64f
1:30am 2 5 mph 1013.5mb 64f
1:20am 2 5 mph 1014.2mb 64f
1:10am 2 5 mph 1013.9mb 64f
1:00am 2 6 mph 1013.9mb 64f
12:50am 2 5 mph 1014.6mb 65f
12:40am 2 5 mph 1013.9mb 65f
12:30am 2 6 mph 1014.6mb 65f
12:20am 2 6 mph 1014.6mb 65f
12:10am 1 5 mph 1014.6mb 65f
12:00am 2 5 mph 1014.9mb 65f
Fri 07/25 11:50pm 2 6 mph 1014.2mb 65f
11:40pm 2 5 mph 1014.9mb 65f
11:30pm  -  5 mph 1014.2mb 65f
11:29pm 1 7 mph 1015.2mb 66f
11:20pm 1 5 mph 1014.9mb 66f
11:10pm 2 6 mph 1014.6mb 66f
11:00pm 2 6 mph 1015.2mb 67f
10:50pm  -  5 mph 1014.6mb 67f
10:40pm 2 7 mph 1015.2mb 67f
10:30pm 2 5 mph 1014.9mb 67f
10:29pm 2 8 mph 1015.6mb 67f
10:20pm 2 6 mph 1015.2mb 67f
10:10pm 2 8 mph 1015.2mb 68f
10:00pm 2 8 mph 1014.6mb 68f
9:50pm 2 6 mph 1015.2mb 68f
9:40pm 2 6 mph 1014.6mb 68f
9:30pm 2 6 mph 1015.2mb 68f
9:28pm 1 9 mph 1015.2mb 68f
9:20pm 2 9 mph 1014.6mb 68f
9:10pm 2 6 mph 1014.9mb 68f
9:00pm 2 6 mph 1014.6mb 68f
8:50pm 2 7 mph 1014.9mb 68f
8:40pm 2 6 mph 1014.2mb 69f
8:30pm 2 5 mph 1014.9mb 68f
8:28pm 2 6 mph 1014.6mb 69f
8:20pm  -  5 mph 1014.2mb 69f
8:10pm 1 5 mph 1014.6mb 70f
8:00pm 2 5 mph 1014.9mb 71f
7:50pm 2 6 mph 1014.2mb 71f
7:40pm 3 6 mph 1014.9mb 72f
7:30pm 5 9 mph 1014.6mb 71f
7:28pm 5 14 mph 1014.2mb 71f
7:20pm 6 10 mph 1014.2mb 70f
7:10pm 10 14 mph 1014.9mb 70f
7:00pm 9 13 mph 1014.2mb 69f
6:50pm 9 10 mph 1015.2mb 70f
6:40pm 5 7 mph 1014.6mb 69f
6:30pm 5 8 mph 1014.9mb 70f
6:27pm 5 9 mph 1014.6mb 70f
6:20pm 6 9 mph 1014.6mb 70f
6:10pm 6 8 mph 1014.9mb 70f
6:00pm 6 8 mph 1014.9mb 70f
5:50pm 5 6 mph 1014.9mb 69f
5:40pm 5 7 mph 1015.6mb 69f
5:30pm 3 7 mph 1014.9mb 67f
5:27pm 5 15 mph 1015.6mb 69f
5:20pm 5 9 mph 1015.6mb 70f
5:10pm 6 9 mph 1014.9mb 70f
5:00pm 6 10 mph 1015.2mb 70f
4:50pm 9 15 mph 1015.6mb 70f
4:40pm 10 15 mph 1014.9mb 70f
4:30pm 10 14 mph 1015.9mb 69f
4:26pm 11 14 mph 1015.2mb 69f
4:20pm 10 13 mph 1015.6mb 69f
4:10pm 7 9 mph 1015.6mb 67f
4:00pm 6 9 mph 1016.6mb 68f
3:50pm 7 9 mph 1015.9mb 67f
3:40pm 7 10 mph 1015.9mb 67f
3:30pm 9 10 mph 1016.6mb 65f
3:26pm 8 11 mph 1016.3mb 66f
3:20pm 7 9 mph 1015.9mb 66f
3:10pm 7 9 mph 1015.6mb 66f
3:00pm 7 11 mph 1015.9mb 71f
2:50pm 5 6 mph 1015.2mb 73f
2:40pm 3 7 mph 1014.6mb 73f
2:30pm 3 8 mph 1015.2mb 73f
2:25pm 3 11 mph 1015.2mb 72f
2:20pm 2 8 mph 1014.9mb 71f
2:10pm 3 8 mph 1014.9mb 68f
2:00pm 6 8 mph 1016.3mb 67f
1:50pm 8 10 mph 1015.9mb 68f
1:40pm 9 11 mph 1016.3mb 65f
1:30pm 9 11 mph 1016.6mb 69f
1:25pm 8 15 mph 1016.3mb 69f
1:20pm 9 15 mph 1015.6mb 69f
1:10pm 11 13 mph 1016.3mb 68f
1:00pm 8 13 mph 1016.3mb 68f
12:50pm 10 11 mph 1015.6mb 65f
12:40pm 10 13 mph 1016.6mb 66f
12:30pm 10 13 mph 1016.6mb 65f
12:25pm 10 13 mph 1016.3mb 67f
12:20pm 10 13 mph 1016.6mb 67f
12:10pm 9 10 mph 1017.3mb 66f
12:00pm 8 9 mph 1016.9mb 64f
11:50am 8 9 mph 1017.9mb 65f
11:40am 8 9 mph 1017.3mb 64f
11:30am 9
mph
1017.9mb 65f
11:24am 8 10 mph 1017.9mb 64f
11:20am 7 9 mph 1017.3mb 64f
11:10am 8 10 mph 1017.9mb 65f
11:00am 8 10 mph 1017.9mb 64f
10:50am 8 9 mph 1017.6mb 64f
10:40am 8 10 mph 1018.3mb 64f
10:30am 8 10 mph 1017.9mb 64f
10:24am 7 13 mph 1018.6mb 63f
10:20am 8 10 mph 1018.3mb 63f
10:10am 8 11 mph 1018.3mb 62f
10:00am 9 13 mph 1017.6mb 63f
9:50am 10 13 mph 1018.3mb 63f
9:40am 10 13 mph 1017.9mb 64f
9:30am 10 13 mph 1018.3mb 64f
9:23am 9 13 mph 1018.3mb 64f
9:20am 9 13 mph 1018.6mb 64f
9:10am 9 11 mph 1018.3mb 64f
9:00am 8 13 mph 1019.3mb 64f
8:50am 7 11 mph 1019.6mb 63f
8:40am 9 11 mph 1019.6mb 61f
8:30am 6 10 mph 1019.6mb 62f
8:23am 7 10 mph 1020.3mb 60f
8:20am 7 9 mph 1020.3mb 60f
8:10am 7 8 mph 1020.3mb 59f
8:00am 3 6 mph 1020mb 57f
7:50am 6
mph
1019.6mb 56f
7:40am 5 9 mph 1019.6mb 56f
7:30am 6 9 mph 1020mb 60f
7:23am 5 8 mph 1019.6mb 60f
7:20am 3 8 mph 1019.3mb 60f
7:10am 2 5 mph 1018.3mb 59f
7:00am 3 6 mph 1017.9mb 58f
6:50am 2 5 mph 1018.3mb 58f
6:40am 1 6 mph 1017.9mb 58f
6:30am 2 6 mph 1018.6mb 58f
6:22am 2 8 mph 1018.6mb 58f
6:20am 2 7 mph 1018.3mb 58f
6:10am 2 8 mph 1017.9mb 58f
6:00am 2 5 mph 1017.9mb 57f
5:50am  -  5 mph 1017.6mb 56f
5:40am  -  8 mph 1017.9mb 56f
5:30am 3 7 mph 1019mb 56f
5:22am 3 8 mph 1019mb 56f
5:20am 5 8 mph 1019mb 56f
5:10am 3 7 mph 1019mb 55f
5:00am 5 7 mph 1018.6mb 54f
4:50am 5 6 mph 1018.6mb 54f
4:40am 2 5 mph 1018.6mb 55f
4:30am 2 5 mph 1019mb 55f
4:21am  -  5 mph 1018.3mb 55f
4:20am  -  2 mph 1017.9mb 55f
4:10am 1 2 mph 1017.6mb 55f
4:00am 1 2 mph 1017.9mb 54f
3:50am  -  3 mph 1018.3mb 55f
3:40am  -  2 mph 1018.6mb 55f
3:30am 2 5 mph 1019mb 55f
3:21am  -  3 mph 1018.6mb 54f
3:20am  -  3 mph 1019.3mb 54f
3:10am  -  2 mph 1019.6mb 55f
3:00am 2
mph
1019mb 55f
2:50am 1 2 mph 1018.3mb 55f
2:40am 2 3 mph 1018.3mb 56f
2:30am  -  1 mph 1018.6mb 56f
2:21am  -  5 mph 1018.6mb 56f
2:20am  -  3 mph 1019mb 56f
2:10am 1 3 mph 1019mb 56f
2:00am  -  3 mph 1018.3mb 56f
1:50am 1 5 mph 1017.6mb 56f
1:40am 2 3 mph 1017.6mb 56f
1:30am  -  1 mph 1017.9mb 56f
1:20am  -  2 mph 1018.6mb 55f
1:10am  -  1 mph 1018.3mb 55f
1:00am  -  2 mph 1017.9mb 55f
12:50am  -  1 mph 1018.3mb 56f
12:40am  -  1 mph 1018.6mb 56f
12:30am  -  2 mph 1019mb 57f
12:20am 1 2 mph 1019mb 57f
12:10am  -  1 mph 1018.3mb 57f
12:00am  -  2 mph 1017.9mb 57f
Thu 07/24 11:50pm  -  2 mph 1018.3mb 57f
11:40pm  -  1 mph 1018.6mb 57f
11:30pm  -  1 mph 1018.3mb 58f
11:20pm  -  1 mph 1017.9mb 58f
11:19pm  -  3 mph 1018.6mb 58f
11:10pm  -  1 mph 1019mb 58f
11:00pm  -  3 mph 1019.3mb 58f
10:50pm  -  mph 1018.3mb 58f
10:40pm  -  1 mph 1018.6mb 58f
10:30pm  -  1 mph 1019mb 58f
10:20pm  -  1 mph 1019mb 58f
10:19pm  -  3 mph 1018.6mb 58f
10:10pm  -  mph 1018.3mb 58f
10:00pm  -  3 mph 1019mb 58f
9:50pm  -  1 mph 1019.6mb 59f
9:40pm  -  1 mph 1019mb 59f
9:30pm  -  1 mph 1019.6mb 60f
9:20pm  -  2 mph 1019.3mb 60f
9:10pm  -  2 mph 1019.3mb 60f
9:00pm  -  2 mph 1020mb 61f
8:50pm 2 3 mph 1019.3mb 61f
8:40pm 1 3 mph 1019.6mb 61f
8:30pm 1 3 mph 1019.6mb 61f
8:20pm 2 5 mph 1019mb 62f
8:18pm 2 9 mph 1019.6mb 62f
8:10pm 2 5 mph 1019.6mb 62f
8:00pm 2 6 mph 1019.3mb 63f
7:50pm 5 7 mph 1019.3mb 64f
7:40pm 5 7 mph 1019.6mb 64f
7:30pm 6 8 mph 1019.3mb 64f
7:20pm 7 9 mph 1020mb 65f
7:18pm 7 10 mph 1019.6mb 65f
7:10pm 7 10 mph 1019.3mb 65f
7:00pm 8 10 mph 1020mb 65f
6:50pm 7 9 mph 1019.6mb 65f
6:40pm 7 9 mph 1019.3mb 65f